TAP669 EHAM-LPPT

Flight info

Callsign TAP669
Flight time N/A
Altitude 23000
Route KUDAD2N WOODY N872 MEDIL DCT KOVIN DCT NIDUV DCT KIHVI UN872 ERIGA UZ218 FUJTI DCT ATLEN DCT ABUPI DCT XAMAX XAMAX3B
Aircraft A320/M-SDE3FGHIRWY/LB1

Departure

Time 2026-04-28 16:45
Airport Amsterdam Airport Schiphol (EHAM)

Arrival

Time N/A
Airport Lisbon Humberto Delgado Airport (LPPT)
Time Latitude Longitude Altitude Speed Heading
2026-04-28 16:15 52.30534 4.76506 -2 ft 0 kts 58°
2026-04-28 16:26 52.30531 4.76498 -3 ft 2 kts 58°
2026-04-28 16:26 52.30522 4.76472 -3 ft 3 kts 70°
2026-04-28 16:26 52.30519 4.76443 -3 ft 3 kts 103°
2026-04-28 16:26 52.30522 4.76424 -3 ft 3 kts 129°
2026-04-28 16:27 52.30531 4.76410 -3 ft 0 kts 148°
2026-04-28 16:30 52.30523 4.76418 -3 ft 3 kts 148°
2026-04-28 16:30 52.30510 4.76432 -3 ft 2 kts 148°
2026-04-28 16:31 52.30497 4.76445 -3 ft 2 kts 148°
2026-04-28 16:31 52.30488 4.76453 -3 ft 1 kts 148°
2026-04-28 16:31 52.30484 4.76458 -3 ft 1 kts 148°
2026-04-28 16:31 52.30481 4.76461 -3 ft 1 kts 148°
2026-04-28 16:32 52.30473 4.76469 -3 ft 4 kts 148°
2026-04-28 16:32 52.30409 4.76535 -3 ft 5 kts 147°
2026-04-28 16:32 52.30398 4.76547 -3 ft 0 kts 147°
2026-04-28 16:35 52.30397 4.76548 -3 ft 1 kts 147°
2026-04-28 16:35 52.30377 4.76569 -3 ft 5 kts 148°
2026-04-28 16:35 52.30323 4.76576 -3 ft 11 kts 208°
2026-04-28 16:35 52.30269 4.76455 -3 ft 14 kts 238°
2026-04-28 16:36 52.30220 4.76327 -3 ft 13 kts 238°
2026-04-28 16:36 52.30177 4.76213 -3 ft 11 kts 238°
2026-04-28 16:36 52.30139 4.76111 -3 ft 10 kts 238°
2026-04-28 16:36 52.30102 4.76014 -3 ft 11 kts 238°
2026-04-28 16:37 52.30056 4.75898 -3 ft 13 kts 237°
2026-04-28 16:37 52.30004 4.75762 -3 ft 15 kts 239°
2026-04-28 16:37 52.29947 4.75613 -3 ft 15 kts 238°
2026-04-28 16:38 52.29850 4.75355 -3 ft 12 kts 240°
2026-04-28 16:38 52.29835 4.75212 -3 ft 14 kts 290°
2026-04-28 16:38 52.29901 4.75076 -3 ft 15 kts 311°
2026-04-28 16:38 52.29972 4.74943 -3 ft 16 kts 311°
2026-04-28 16:39 52.30047 4.74806 -3 ft 16 kts 311°
2026-04-28 16:39 52.30121 4.74667 -3 ft 16 kts 311°
2026-04-28 16:39 52.30192 4.74538 -3 ft 14 kts 312°
2026-04-28 16:39 52.30255 4.74425 -3 ft 13 kts 312°
2026-04-28 16:40 52.30309 4.74327 -3 ft 11 kts 312°
2026-04-28 16:40 52.30354 4.74244 -3 ft 9 kts 312°
2026-04-28 16:40 52.30363 4.74228 -3 ft 1 kts 311°
2026-04-28 16:40 52.30372 4.74212 -3 ft 2 kts 311°
2026-04-28 16:41 52.30401 4.74191 -3 ft 10 kts 350°
2026-04-28 16:41 52.30498 4.74195 -3 ft 15 kts
2026-04-28 16:41 52.30607 4.74207 -3 ft 16 kts
2026-04-28 16:41 52.30721 4.74220 -3 ft 17 kts
2026-04-28 16:42 52.30839 4.74232 -3 ft 17 kts
2026-04-28 16:42 52.30962 4.74241 -3 ft 18 kts
2026-04-28 16:42 52.31088 4.74251 -3 ft 18 kts
2026-04-28 16:42 52.31215 4.74265 -3 ft 18 kts
2026-04-28 16:43 52.31341 4.74279 -2 ft 18 kts
2026-04-28 16:43 52.31395 4.74430 -3 ft 16 kts 86°
2026-04-28 16:43 52.31405 4.74611 -3 ft 15 kts 69°
2026-04-28 16:43 52.31493 4.74667 -3 ft 12 kts 357°
2026-04-28 16:44 52.31575 4.74659 -1 ft 11 kts 357°
2026-04-28 16:44 52.31652 4.74674 0 ft 11 kts 35°
2026-04-28 16:44 52.31671 4.74805 -1 ft 15 kts 86°
2026-04-28 16:44 52.31687 4.75232 -4 ft 70 kts 86°
2026-04-28 16:45 52.31729 4.76356 -1 ft 125 kts 86°
2026-04-28 16:45 52.31813 4.78000 169 ft 151 kts 81°
2026-04-28 16:45 52.31880 4.79676 841 ft 147 kts 85°
2026-04-28 16:45 52.31557 4.81302 1355 ft 167 kts 129°
2026-04-28 16:46 52.30444 4.82271 1634 ft 199 kts 158°
2026-04-28 16:46 52.29037 4.82967 1854 ft 222 kts 156°
2026-04-28 16:46 52.27546 4.83788 2511 ft 227 kts 154°
2026-04-28 16:46 52.26039 4.84609 3296 ft 231 kts 160°
2026-04-28 16:47 52.24382 4.84848 3859 ft 252 kts 174°
2026-04-28 16:47 52.22562 4.84821 4364 ft 267 kts 176°
2026-04-28 16:47 52.20698 4.84762 5227 ft 268 kts 178°
2026-04-28 16:47 52.18826 4.84698 6038 ft 271 kts 176°
2026-04-28 16:48 52.16932 4.84642 6817 ft 274 kts 176°
2026-04-28 16:48 52.15018 4.84588 7557 ft 277 kts 176°
2026-04-28 16:48 52.13082 4.84539 8294 ft 280 kts 177°
2026-04-28 16:48 52.11121 4.84491 9034 ft 283 kts 176°
2026-04-28 16:49 52.09142 4.84446 9769 ft 286 kts 178°
2026-04-28 16:49 52.07140 4.84401 10450 ft 291 kts 179°
2026-04-28 16:49 52.05058 4.83817 10628 ft 319 kts 193°
2026-04-28 16:49 52.02874 4.82645 10757 ft 342 kts 194°
2026-04-28 16:50 52.00569 4.81363 11073 ft 356 kts 196°
2026-04-28 16:50 51.98219 4.80032 11680 ft 360 kts 195°
2026-04-28 16:50 51.95843 4.78683 12324 ft 363 kts 197°
2026-04-28 16:50 51.93449 4.77330 12994 ft 366 kts 196°
2026-04-28 16:51 51.91093 4.75719 13662 ft 370 kts 203°
2026-04-28 16:51 51.88773 4.73890 14278 ft 372 kts 205°
2026-04-28 16:51 51.86431 4.72053 14851 ft 375 kts 204°
2026-04-28 16:51 51.84074 4.70210 15364 ft 379 kts 205°
2026-04-28 16:52 51.81688 4.68347 15893 ft 382 kts 203°
2026-04-28 16:52 51.79280 4.66476 16414 ft 386 kts 202°
2026-04-28 16:52 51.76851 4.64591 16967 ft 388 kts 204°
2026-04-28 16:52 51.74404 4.62689 17464 ft 392 kts 202°
2026-04-28 16:53 51.71930 4.60770 17954 ft 397 kts 204°
2026-04-28 16:53 51.69470 4.58864 18492 ft 399 kts 204°
2026-04-28 16:53 51.66958 4.56921 18971 ft 401 kts 203°
2026-04-28 16:53 51.64430 4.54971 19435 ft 405 kts 203°
2026-04-28 16:54 51.61878 4.53001 19873 ft 408 kts 204°
2026-04-28 16:54 51.59314 4.51022 20356 ft 410 kts 204°
2026-04-28 16:54 51.56734 4.49035 20836 ft 413 kts 204°
2026-04-28 16:54 51.54983 4.47687 21129 ft 414 kts 203°
2026-04-28 16:55 51.51521 4.45025 21685 ft 418 kts 203°
2026-04-28 16:55 51.48893 4.43008 22169 ft 419 kts 204°
2026-04-28 16:55 51.46259 4.40993 22676 ft 419 kts 202°
2026-04-28 16:55 51.43622 4.38981 23125 ft 421 kts 204°
2026-04-28 16:56 51.40973 4.36962 23539 ft 423 kts 204°
2026-04-28 16:56 51.38307 4.34935 23908 ft 425 kts 202°
2026-04-28 16:56 51.35630 4.32904 24216 ft 427 kts 203°
2026-04-28 16:56 51.32938 4.30866 24529 ft 429 kts 204°
2026-04-28 16:57 51.30238 4.28818 24821 ft 431 kts 202°
2026-04-28 16:57 51.27527 4.26759 25118 ft 433 kts 202°
2026-04-28 16:57 51.24801 4.24689 25437 ft 434 kts 203°
2026-04-28 16:57 51.22074 4.22618 25802 ft 434 kts 204°
2026-04-28 16:58 51.19346 4.20548 26114 ft 435 kts 202°
2026-04-28 16:58 51.16594 4.18502 26393 ft 436 kts 200°
2026-04-28 16:58 51.13742 4.16855 26664 ft 437 kts 198°